"TOA5","AWS1","CR1000","7964","CR1000.Std.14","CPU:AWS1_114.CR1","64363","TBL110"
"TIMESTAMP","RECORD","Wind_spd_WVc(1)","Wind_spd_WVc(2)","Air_Temp_Avg","Humidity_Avg","SW_upper_Wm2_Avg","Rain_Tot","Press_Avg","Issui_Tot","Depth_cm","SR50A_Raw","Quality","Ground_Temp_Avg(1)","Ground_Temp_Avg(2)","SW_lower_Wm2_Avg","Albedo_Avg","SWC_per(1)","SWC_per(2)","Period(1)","Period(2)"
"TS","RN","","","","","","","","","","","","","","","","","","",""
"","","WVc","WVc","Avg","Avg","Avg","Tot","Avg","Tot","Smp","Smp","Smp","Avg","Avg","Avg","Avg","Smp","Smp","Smp","Smp"
"2016-06-16 00:00:00",240109,0.017,61.94,14.14,95.2,0,0,862.8556,0,13.27,2.971,492,18.29,17.28,0.6101161,0,49.41,57.16,33.15,35.02
"2016-06-16 00:10:00",240110,0.067,55.47,14.13,96.5,0,0,862.8104,0,14.52,2.959,365,18.26,17.28,0.4964299,0,49.41,57.16,33.15,35.02
"2016-06-16 00:20:00",240111,0.046,171.3,14.04,97.9,0,0,862.7933,0,14.51,2.96,377,18.25,17.28,0.4547449,0,49.41,57.16,33.15,35.02
"2016-06-16 00:30:00",240112,0.28,92.7,13.82,99.7,0,0,862.5588,0,14.47,2.962,478,18.25,17.28,0.3941123,0,49.41,57.16,33.15,35.02
"2016-06-16 00:40:00",240113,0.08,152.4,13.68,100,0,0,862.3403,0,14.63,2.96,338,18.19,17.28,0.4471658,0,49.41,57.16,33.15,35.02
"2016-06-16 00:50:00",240114,0.098,115.9,13.74,99.7,0,0,862.3599,0,14.9,2.958,470,18.15,17.29,0.4547449,0,49.41,57.1,33.15,35.01
"2016-06-16 01:00:00",240115,0.126,90.5,13.63,100,0,0,862.4864,0,14.31,2.964,432,18.11,17.3,0.4547449,0,49.41,57.1,33.15,35.01
"2016-06-16 01:10:00",240116,0.064,78.09,13.57,100,0,0,862.457,0,-28.85,3.385,332,18.11,17.31,0.4547449,0,49.41,57.1,33.15,35.01
"2016-06-16 01:20:00",240117,0.182,95.3,13.51,100,0,0,862.4401,0,14.4,2.964,462,18.13,17.32,0.4547449,0,49.41,57.1,33.15,35.01
"2016-06-16 01:30:00",240118,0.098,142.5,13.41,100,0,0,862.1852,0,14.48,2.963,373,18.07,17.32,0.4547449,0,49.41,57.1,33.15,35.01
"2016-06-16 01:40:00",240119,0.324,74.73,13.43,100,0,0,862.3516,0,11.25,2.995,304,18.05,17.31,0.4547449,0,49.35,57.1,33.14,35.01
"2016-06-16 01:50:00",240120,0.285,87.2,13.45,100,0,0,862.3516,0,-26.96,3.368,366,18.04,17.32,0.4547449,0,49.41,57.1,33.15,35.01
"2016-06-16 02:00:00",240121,0.474,117.5,13.33,100,0,0,862.3095,0,14.34,2.965,441,18,17.31,0.4547449,0,49.35,57.1,33.14,35.01
"2016-06-16 02:10:00",240122,0.59,125.2,13.32,100,0,0,862.1852,0,-31.97,3.417,297,17.92,17.3,0.4547449,0,49.41,57.1,33.15,35.01
"2016-06-16 02:20:00",240123,0.368,130.1,13.4,100,0,0,861.9052,0,15.24,2.956,314,17.93,17.28,0.4547449,0,49.35,57.04,33.14,34.99
"2016-06-16 02:30:00",240124,0.429,126.1,13.69,95.9,0,0,861.7598,0,12.23,2.982,305,17.97,17.25,0.7958036,0,49.35,57.04,33.14,34.99
"2016-06-16 02:40:00",240125,0.301,26.52,14.41,85.1,0,0,861.8441,0,-27.12,3.363,360,17.92,17.26,1.656029,0,49.35,57.1,33.14,35.01
"2016-06-16 02:50:00",240126,0.572,79.02,14.66,82.6,0,0,861.8461,0,14.46,2.956,342,17.92,17.29,1.333918,0,49.35,57.04,33.14,34.99
"2016-06-16 03:00:00",240127,0.252,348.7,14.75,83.1,0,0,861.7429,0,14.27,2.957,326,17.92,17.26,0.9360167,0,49.35,57.04,33.14,34.99
"2016-06-16 03:10:00",240128,0.024,176.6,14.84,83.4,0,0,861.6397,0,15.19,2.95,407,17.87,17.26,0.7313814,0,49.35,57.04,33.14,34.99
"2016-06-16 03:20:00",240129,0.117,80.7,14.48,88.5,0,0,861.6397,0,14.75,2.957,314,17.86,17.24,0.2880051,0,49.41,57.04,33.15,34.99
"2016-06-16 03:30:00",240130,0.012,104.7,14.15,91.8,0,0,861.6659,0,15.01,2.954,358,17.8,17.22,0.1743189,0,49.35,57.04,33.14,34.99
"2016-06-16 03:40:00",240131,0.06,157.7,14.22,92,0,0,861.7086,0,14.62,2.958,341,17.78,17.19,0.4054809,0,49.41,57.04,33.15,34.99
"2016-06-16 03:50:00",240132,0.111,286.4,14.1,94.3,0,0,861.731,0,7.334,3.03,242,17.77,17.16,0.3259005,0,49.41,57.04,33.15,34.99
"2016-06-16 04:00:00",240133,0.055,186.4,14,98.1,0,0,861.746,0,-27.73,3.372,222,17.79,17.15,0.1705294,0,49.41,57.04,33.15,34.99
"2016-06-16 04:10:00",240134,0.274,141.8,13.71,100,0,0,861.5859,0,15.72,2.95,431,17.71,17.15,0.01136862,0,49.41,56.98,33.15,34.98
"2016-06-16 04:20:00",240135,0.436,134.9,13.55,100,0,0,861.5898,0,-26.55,3.363,227,17.66,17.15,0.1250549,0,49.35,57.04,33.14,34.99
"2016-06-16 04:30:00",240136,0.194,118.6,13.6,99.9,0.05502397,0,861.5837,0,-26.04,3.357,236,17.67,17.16,0.4357972,0.249,49.41,57.04,33.15,34.99
"2016-06-16 04:40:00",240137,0.259,87.8,14.14,93.4,1.375599,0,861.5704,0,8.95,3.012,264,17.7,17.16,1.227811,1.009,49.41,56.98,33.15,34.98
"2016-06-16 04:50:00",240138,0.083,325.2,14.33,91.5,4.205403,0,861.5701,0,8.06,3.022,275,17.67,17.18,1.451394,0.407,49.41,57.04,33.15,34.99
"2016-06-16 05:00:00",240139,0,0,14.12,96.9,11.10305,0,861.3904,0,13.95,2.965,393,17.62,17.18,2.353305,0.213,49.41,56.98,33.15,34.98
"2016-06-16 05:10:00",240140,0.199,142.2,13.85,99.4,10.48207,0,861.3005,0,-26.32,3.36,227,17.58,17.19,1.909929,0.183,49.41,56.98,33.15,34.98
"2016-06-16 05:20:00",240141,0.302,141.1,13.67,100,30.58154,0,861.0385,0,16.19,2.945,408,17.58,17.19,5.180303,0.17,49.41,56.98,33.15,34.98
"2016-06-16 05:30:00",240142,0.107,113.6,13.97,97.5,39.38144,0,860.8281,0,9.2,3.01,272,17.6,17.19,6.76433,0.172,49.41,56.98,33.15,34.98
"2016-06-16 05:40:00",240143,0.311,21.26,14.79,89.2,41.85359,0,860.7992,0,-24.71,3.336,211,17.62,17.19,7.76098,0.185,49.41,56.98,33.15,34.98
"2016-06-16 05:50:00",240144,0.46,319.9,14.82,88.5,63.27757,0,860.5787,0,13.73,2.964,435,17.58,17.19,10.55008,0.167,49.41,56.98,33.15,34.98
"2016-06-16 06:00:00",240145,0.193,15.86,14.82,90.3,90.49084,0,860.536,0,-24.79,3.338,226,17.54,17.19,14.86258,0.164,49.41,56.98,33.15,34.98
"2016-06-16 06:10:00",240146,0.519,350.7,14.71,90.9,151.5006,0,860.4343,0,7.172,3.027,430,17.54,17.18,27.2468,0.179,49.41,56.98,33.15,34.98
"2016-06-16 06:20:00",240147,0.147,7.565,15.31,87,121.6103,0,860.3807,0,-27.74,3.364,240,17.53,17.17,22.40368,0.183,49.41,56.98,33.15,34.98
"2016-06-16 06:30:00",240148,0.1,284.8,15.35,88.3,228.2703,0,860.3069,0,318,0,0,17.53,17.15,40.19422,0.179,49.41,56.98,33.15,34.98
"2016-06-16 06:40:00",240149,0.482,157.1,16.02,85.9,322.448,0,860.1563,0,16.13,2.935,274,17.52,17.12,50.15465,0.156,49.41,56.98,33.15,34.98
"2016-06-16 06:50:00",240150,0.333,126.1,15.72,88.5,185.556,0,860.0974,0,-24.58,3.33,209,17.5,17.11,27.92908,0.151,49.41,56.98,33.15,34.98
"2016-06-16 07:00:00",240151,0.625,126.8,15.65,90.1,137.7879,0,860.2445,0,16.67,2.932,293,17.46,17.07,20.0762,0.146,49.41,56.93,33.15,34.97
"2016-06-16 07:10:00",240152,0.318,152.2,15.5,92.1,150.0484,0,860.254,0,-28.39,3.369,213,17.4,17.02,23.00315,0.152,49.41,56.93,33.15,34.97
"2016-06-16 07:20:00",240153,0.439,142.4,15.64,91.6,187.0794,0,860.2405,0,-23.48,3.321,191,17.38,17.01,28.73429,0.154,49.41,56.93,33.15,34.97
"2016-06-16 07:30:00",240154,0.439,100.6,15.83,90.3,166.9809,0,860.3624,0,-26.97,3.354,234,17.39,17.01,25.639,0.153,49.35,56.93,33.14,34.97
"2016-06-16 07:40:00",240155,0.179,43.84,15.86,94,118.7486,0,860.613,0,-29.34,3.377,204,17.4,17.01,17.33885,0.145,49.35,56.93,33.14,34.97
"2016-06-16 07:50:00",240156,0.254,45.91,15.82,95.4,113.3619,0,860.7457,0,6.352,3.03,272,17.41,16.99,16.65695,0.146,49.35,56.93,33.14,34.97
"2016-06-16 08:00:00",240157,0.175,129.5,15.86,95.7,138.1928,0,860.6425,0,7.334,3.02,251,17.43,16.96,20.8619,0.15,49.35,56.93,33.14,34.97
"2016-06-16 08:10:00",240158,0.387,126.3,15.94,91.8,203.3662,0,860.2803,0,7.587,3.018,275,17.44,16.96,31.67358,0.156,49.41,56.93,33.15,34.97
"2016-06-16 08:20:00",240159,0.202,101.6,16.09,90.7,182.3267,0,860.3224,0,-25.22,3.334,191,17.44,16.93,27.46483,0.15,49.41,56.93,33.15,34.97
"2016-06-16 08:30:00",240160,0.198,132.7,16.19,92.2,128.1544,0,860.3266,0,16.57,2.93,320,17.44,16.93,17.93737,0.139,49.35,56.93,33.14,34.97
"2016-06-16 08:40:00",240161,0.104,115.2,15.88,95.8,93.66216,0,860.2403,0,15.75,2.938,312,17.44,16.93,12.36107,0.13,49.35,56.93,33.14,34.97
"2016-06-16 08:50:00",240162,0.209,140.9,15.67,98.2,71.89973,0,860.2403,0,16.39,2.934,307,17.44,16.93,8.766015,0.122,49.35,56.93,33.14,34.97
"2016-06-16 09:00:00",240163,0.229,123.9,15.54,99.9,67.24785,0,860.2403,0,-24.97,3.336,193,17.44,16.97,8.144742,0.12,49.35,56.93,33.14,34.97
"2016-06-16 09:10:00",240164,0.085,109.1,15.61,99.4,91.03369,0,860.2403,0,-24.35,3.33,187,17.44,16.94,12.06937,0.132,49.35,56.93,33.14,34.97
"2016-06-16 09:20:00",240165,0.324,128.1,15.62,99.9,119.0432,0,860.2361,0,-24.97,3.335,187,17.43,16.92,16.35388,0.137,49.35,56.93,33.14,34.97
"2016-06-16 09:30:00",240166,0.152,42.92,15.89,95.3,112.3207,0,860.1182,0,-24.81,3.331,183,17.42,16.92,15.9296,0.142,49.35,56.93,33.14,34.97
"2016-06-16 09:40:00",240167,0.031,320.2,16.16,96.5,121.2398,0,859.9877,0,-23.73,3.321,209,17.43,16.92,17.37297,0.143,49.35,56.87,33.14,34.95
"2016-06-16 09:50:00",240168,0.03,150.4,16.12,98.5,117.6342,0,859.914,0,15.57,2.939,302,17.45,16.92,16.6117,0.141,49.35,56.93,33.14,34.97
"2016-06-16 10:00:00",240169,0.251,151.1,16,99.9,122.6053,0,859.7351,0,-23.43,3.319,186,17.47,16.91,17.57027,0.143,49.35,56.87,33.14,34.95
"2016-06-16 10:10:00",240170,0.286,128.6,15.91,100,145.6687,0,859.7751,0,-22.25,3.307,190,17.48,16.87,21.35539,0.146,49.35,56.87,33.14,34.95
"2016-06-16 10:20:00",240171,0.318,52.77,16.07,100,187.1496,0,859.8824,0,17.64,2.918,308,17.46,16.85,27.31418,0.146,49.35,56.93,33.14,34.97
"2016-06-16 10:30:00",240172,0.447,95.6,16.06,100,153.0872,0,859.8404,0,-27.75,3.361,208,17.45,16.84,21.59735,0.141,49.3,56.93,33.12,34.97
"2016-06-16 10:40:00",240173,0.332,82.9,16.1,100,137.7968,0,859.7604,0,17.63,2.919,269,17.45,16.84,19.41167,0.141,49.35,56.93,33.14,34.97
"2016-06-16 10:50:00",240174,0.287,95.2,16.12,99.7,147.5013,0,859.7351,0,17.88,2.917,320,17.45,16.85,20.96486,0.142,49.35,56.93,33.14,34.97
"2016-06-16 11:00:00",240175,0.323,136.6,15.88,100,129.6071,0.5,859.7351,0,-1.285,3.104,286,17.45,16.84,18.24842,0.141,49.35,56.87,33.14,34.95
"2016-06-16 11:10:00",240176,0.354,137,15.86,100,129.1671,0,859.5814,0,8.37,3.011,293,17.45,16.86,17.934,0.139,49.35,56.93,33.14,34.97
"2016-06-16 11:20:00",240177,0.096,77.31,15.96,100,153.4236,0,859.6508,0,-22.35,3.307,195,17.49,16.87,21.47266,0.14,49.35,56.93,33.14,34.97
"2016-06-16 11:30:00",240178,0.252,140.3,16.12,100,189.6953,0,859.6909,0,-25.72,3.34,239,17.51,16.86,26.56781,0.14,49.35,56.87,33.14,34.95
"2016-06-16 11:40:00",240179,0.107,126.9,16.16,100,174.3258,0,859.7182,0,1.535,3.074,329,17.49,16.85,23.76457,0.136,49.3,56.93,33.12,34.97
"2016-06-16 11:50:00",240180,0.443,142.1,16.11,100,180.8248,0.5,859.6403,0,5.418,3.039,346,17.48,16.86,24.29929,0.134,49.35,56.87,33.14,34.95
"2016-06-16 12:00:00",240181,0.791,148.2,15.72,100,222.8331,0,859.2823,0,-15.61,3.244,184,17.48,16.87,30.92878,0.139,49.35,56.87,33.14,34.95
"2016-06-16 12:10:00",240182,1.005,148,15.97,99.5,260.4623,0,858.7412,0,-23.33,3.316,188,17.51,16.88,37.94116,0.146,49.3,56.87,33.12,34.95
"2016-06-16 12:20:00",240183,1.143,154,16.31,92.7,279.6552,0,858.3496,0,-16.79,3.252,187,17.55,16.89,41.56335,0.149,49.3,56.87,33.12,34.95
"2016-06-16 12:30:00",240184,1.128,150.7,16.65,87.8,400.2258,0,857.9412,0,26.45,2.829,268,17.54,16.87,60.39465,0.151,49.3,56.87,33.12,34.95
"2016-06-16 12:40:00",240185,1.092,153.6,17,84,362.6483,0,857.72,0,26.16,2.831,291,17.56,16.85,54.50754,0.15,49.35,56.87,33.14,34.95
"2016-06-16 12:50:00",240186,0.532,115.9,17.38,85.9,403.9871,0,857.6337,0,25.84,2.832,281,17.57,16.85,60.61892,0.15,49.35,56.87,33.14,34.95
"2016-06-16 13:00:00",240187,0.494,359.8,17.51,91.5,373.722,0,857.459,0,25.53,2.835,257,17.59,16.85,55.03755,0.147,49.35,56.87,33.14,34.95
"2016-06-16 13:10:00",240188,0.55,9.61,17.44,96.4,350.9146,0,857.4611,0,25.47,2.836,249,17.62,16.84,51.81641,0.148,49.35,56.87,33.14,34.95
"2016-06-16 13:20:00",240189,0.332,296.8,17.63,92.6,383.9463,0,857.4695,0,25.45,2.835,279,17.66,16.83,56.22549,0.146,49.35,56.87,33.14,34.95
"2016-06-16 13:30:00",240190,0.595,190.2,17.56,83.5,216.0845,0,857.4527,0,25.62,2.835,250,17.62,16.83,30.02572,0.139,49.3,56.87,33.12,34.95
"2016-06-16 13:40:00",240191,0.65,120.3,17.22,83.9,203.7238,0,857.4379,0,-13.29,3.213,176,17.62,16.83,29.32108,0.144,49.35,56.87,33.14,34.95
"2016-06-16 13:50:00",240192,0.785,146.5,17.03,76.27,188.7584,0,857.2401,0,26.16,2.831,267,17.66,16.83,27.60499,0.146,49.3,56.87,33.12,34.95
"2016-06-16 14:00:00",240193,0.268,35.02,17.08,79.27,156.5449,0,857.3558,0,-13.58,3.217,174,17.77,16.82,23.07046,0.147,49.3,56.87,33.12,34.95
"2016-06-16 14:10:00",240194,0.213,340,16.81,87,114.9295,0,857.4569,0,-23.37,3.314,194,17.76,16.83,16.28191,0.142,49.3,56.87,33.12,34.95
"2016-06-16 14:20:00",240195,0.141,3.785,16.61,93.7,141.9057,0,857.4484,0,-21.41,3.296,194,17.71,16.81,20.56642,0.145,49.35,56.87,33.14,34.95
"2016-06-16 14:30:00",240196,0.346,326.6,16.38,97,147.6616,0,857.4611,0,-23.58,3.319,184,17.73,16.82,21.21421,0.144,49.35,56.87,33.14,34.95
"2016-06-16 14:40:00",240197,0.308,317.1,15.95,100,122.9289,0,857.4611,0,21.45,2.883,381,17.78,16.8,17.04335,0.139,49.35,56.81,33.14,34.94
"2016-06-16 14:50:00",240198,0.264,329,15.79,100,187.7801,0,857.4611,0,-3.474,3.126,198,17.79,16.81,25.92301,0.138,49.3,56.81,33.12,34.94
"2016-06-16 15:00:00",240199,0.468,123.6,16.02,99.5,212.8492,0.5,857.4674,0,25.25,2.846,297,17.81,16.82,29.27595,0.138,49.3,56.81,33.12,34.94
"2016-06-16 15:10:00",240200,0.214,139.5,15.63,91.7,181.8224,0,857.5158,0,-28.52,3.371,224,17.87,16.82,24.60504,0.135,49.3,56.81,33.12,34.94
"2016-06-16 15:20:00",240201,0.516,147.3,15.38,93.9,141.3972,0,857.4779,0,-15.37,3.245,181,17.88,16.84,18.96482,0.134,49.24,56.81,33.11,34.94
"2016-06-16 15:30:00",240202,0.855,145.3,14.94,87.3,136.8421,0,857.2894,0,-11.53,3.21,170,17.89,16.85,19.13189,0.14,49.46,56.81,33.16,34.94
"2016-06-16 15:40:00",240203,0.393,179.2,14.65,93.1,119.8657,0,857.2115,0,26.61,2.839,385,17.89,16.85,16.77622,0.14,49.3,56.81,33.12,34.94
"2016-06-16 15:50:00",240204,0.078,81.9,14.67,99.2,91.28857,0.5,857.2227,0,-13.86,3.233,180,17.91,16.87,12.37828,0.135,49.3,56.75,33.12,34.93
"2016-06-16 16:00:00",240205,0.208,119.8,14.62,100,99.6198,0,857.2296,0,25.15,2.854,250,17.95,16.87,13.14801,0.132,49.24,56.81,33.11,34.94
"2016-06-16 16:10:00",240206,0.726,151.4,14.43,99.5,101.8319,0.5,857.1082,0,18.29,2.921,289,17.98,16.88,13.54634,0.133,49.3,56.81,33.12,34.94
"2016-06-16 16:20:00",240207,0.698,157.8,14.22,93.7,91.88163,0.5,857.029,0,22.62,2.881,276,17.99,16.89,12.2851,0.134,49.24,56.81,33.11,34.94
"2016-06-16 16:30:00",240208,0.533,146,13.84,97,60.48151,1,857.0087,0,20.1,2.907,282,18,16.9,8.147296,0.135,49.3,56.81,33.12,34.94
"2016-06-16 16:40:00",240209,0.858,138.3,13.74,97.5,47.34374,0,856.7971,0,17.38,2.934,353,18.02,16.88,6.896899,0.146,49.35,56.81,33.14,34.94
"2016-06-16 16:50:00",240210,0.671,135.5,13.9,97.7,50.93239,0.5,856.5496,0,25.26,2.856,342,18.02,16.88,7.840538,0.154,49.35,56.81,33.14,34.94
"2016-06-16 17:00:00",240211,0.325,160.6,13.79,98.3,44.20387,0,856.5602,0,21.61,2.891,247,18.01,16.89,6.639272,0.151,49.41,56.81,33.15,34.94
"2016-06-16 17:10:00",240212,0.073,158.5,13.81,99,38.27309,0,856.4307,0,-16.25,3.261,195,18.03,16.93,5.733575,0.15,49.51,56.81,33.18,34.94
"2016-06-16 17:20:00",240213,0.012,160.8,13.9,100,38.47355,0,856.3299,0,-15.94,3.257,188,18.03,16.96,5.619889,0.146,49.57,56.81,33.19,34.94
"2016-06-16 17:30:00",240214,0.109,348.8,14.05,100,31.51301,0,856.29,0,-30.5,3.399,208,18.04,16.95,4.903666,0.156,49.68,56.81,33.22,34.94
"2016-06-16 17:40:00",240215,0.327,297.2,14,99.7,41.323,0,856.3236,0,27.8,2.831,294,18.02,16.97,6.430851,0.156,49.68,56.87,33.22,34.95
"2016-06-16 17:50:00",240216,0.102,15.56,13.88,100,25.15774,0,856.2858,0,19.04,2.916,218,17.97,16.96,3.728908,0.149,49.73,56.87,33.23,34.95
"2016-06-16 18:00:00",240217,0.091,196.4,13.94,100,16.59759,0,856.3342,0,18.71,2.919,283,17.96,17,2.652679,0.16,49.73,56.93,33.23,34.97
"2016-06-16 18:10:00",240218,0.203,114.5,13.86,100,15.48925,0,856.3658,0,318,0,0,17.9,17.01,2.497308,0.161,49.79,56.93,33.24,34.97
"2016-06-16 18:20:00",240219,0.116,131.7,13.87,100,19.14834,0,856.4753,0,27.29,2.836,309,17.89,17.01,3.05437,0.161,49.84,56.93,33.26,34.97
"2016-06-16 18:30:00",240220,0.031,327.7,13.84,100,16.71157,0,856.5384,0,19.89,2.908,272,17.9,17.01,2.838366,0.17,49.84,56.93,33.26,34.97
"2016-06-16 18:40:00",240221,0.058,301.4,13.76,100,7.89987,0,856.6863,0,19.28,2.915,226,17.94,17.01,1.477921,0.193,49.9,56.93,33.27,34.97
"2016-06-16 18:50:00",240222,0,0,13.71,100,2.586127,0,856.7338,0,18.62,2.921,281,17.96,17.01,0.7882245,0.305,49.9,56.98,33.27,34.98
"2016-06-16 19:00:00",240223,0.067,93.7,13.65,100,2.122353,1,856.5575,0,16.56,2.942,233,17.92,17.01,0.5684311,0.268,49.9,56.98,33.27,34.98
"2016-06-16 19:10:00",240224,0.297,117.2,13.56,100,0.8646623,0.5,856.3542,0,318,0,0,17.89,17.01,0.4547449,0.603,49.95,57.04,33.28,34.99
"2016-06-16 19:20:00",240225,0.743,82.5,13.94,100,0.6877996,0,856.0917,0,-31.45,3.407,221,17.92,17.01,0.8715944,1.366,50.01,57.04,33.3,34.99
"2016-06-16 19:30:00",240226,0.269,341.9,14.05,100,0.1061177,0.5,856.1214,0,-16.63,3.265,176,17.91,17.01,0.5949579,0.884,50.17,57.04,33.34,34.99
"2016-06-16 19:40:00",240227,0.153,316.2,13.72,100,0,0,856.0519,0,-19.4,3.292,187,17.89,17.01,0.3069528,0,50.22,57.1,33.35,35.01
"2016-06-16 19:50:00",240228,0.183,168.3,13.63,100,0,0,856.113,0,16.77,2.94,246,17.87,17,0.3941123,0,50.33,57.16,33.38,35.02
"2016-06-16 20:00:00",240229,0.006,126.8,13.67,100,0,0,856.2858,0,17.26,2.935,254,17.82,17,0.4547449,0,50.44,57.22,33.41,35.03
"2016-06-16 20:10:00",240230,0.08,353.9,13.64,100,0,0.5,856.2858,0,14.69,2.96,316,17.81,17,0.4547449,0,50.5,57.27,33.42,35.05
"2016-06-16 20:20:00",240231,0,0,13.68,100,0,0.5,856.2858,0,4.786,3.056,316,17.77,16.99,0.4547449,0,50.55,57.27,33.43,35.05
"2016-06-16 20:30:00",240232,0,0,13.83,100,0,0.5,856.282,0,16.63,2.94,241,17.77,16.98,0.4547449,0,50.66,57.39,33.46,35.07
"2016-06-16 20:40:00",240233,0,0,13.81,100,0,0,856.2853,0,25.36,2.855,365,17.79,16.98,0.4547449,0,50.77,57.45,33.49,35.09
"2016-06-16 20:50:00",240234,0.15,228.3,13.88,100,0,0,856.4094,0,4.794,3.055,298,17.72,16.97,0.4547449,0,50.83,57.56,33.5,35.12
"2016-06-16 21:00:00",240235,0.026,21.03,13.97,100,0,0,856.4836,0,-15.46,3.253,181,17.66,16.97,0.4547449,0,50.88,57.62,33.52,35.13
"2016-06-16 21:10:00",240236,0,0,13.94,100,0,0.5,856.4626,0,13.28,2.972,372,17.67,16.97,0.4357972,0,50.94,57.68,33.53,35.14
"2016-06-16 21:20:00",240237,0.11,309,13.89,100,0,0,856.5427,0,14.41,2.961,283,17.7,16.97,0.3789541,0,50.94,57.8,33.53,35.17
"2016-06-16 21:30:00",240238,0,0,13.89,100,0,0,856.6248,0,-20.14,3.299,172,17.65,16.97,0.4168495,0,50.94,57.86,33.53,35.18
"2016-06-16 21:40:00",240239,0.073,111.3,13.78,100,0,1,856.6205,0,4.66,3.057,233,17.61,16.97,0.2880051,0,50.94,57.91,33.53,35.2
"2016-06-16 21:50:00",240240,0.051,120.1,13.78,100,0,0,856.7912,0,318,0,0,17.58,16.97,0.3334796,0,51.05,57.97,33.56,35.21
"2016-06-16 22:00:00",240241,0.067,122.2,13.78,100,0,0.5,856.7798,0,-18.3,3.281,194,17.61,16.97,0.420639,0,51.16,58.03,33.58,35.22
"2016-06-16 22:10:00",240242,0,0,13.92,100,0,0.5,856.7865,0,14.67,2.958,243,17.61,16.97,0.4547449,0,51.21,58.15,33.6,35.25
"2016-06-16 22:20:00",240243,0,0,14.09,100,0,0,856.7865,0,14.05,2.964,264,17.55,16.97,0.4547449,0,51.21,58.21,33.6,35.26
"2016-06-16 22:30:00",240244,0.047,185.9,13.97,100,0,0.5,856.7314,0,25.48,2.853,354,17.58,16.97,0.2197934,0,51.27,58.32,33.61,35.29
"2016-06-16 22:40:00",240245,0.02,233.1,14.05,100,0.0235817,0,856.7316,0,18.83,2.917,275,17.54,16.97,0.462324,0.209,51.27,58.38,33.61,35.31
"2016-06-16 22:50:00",240246,0.067,299.3,14.13,100,0,0,856.7827,0,22.61,2.881,291,17.52,16.97,0.41306,0,51.33,58.5,33.62,35.33
"2016-06-16 23:00:00",240247,0,0,14.05,100,0,0,856.827,0,16.62,2.939,280,17.53,16.97,0.1629503,0,51.33,58.61,33.62,35.36
"2016-06-16 23:10:00",240248,0.026,296.4,14.02,100,0,0.5,857.0298,0,20.77,2.899,312,17.47,16.97,0.2652679,0,51.33,58.67,33.62,35.37
"2016-06-16 23:20:00",240249,0.311,96.3,13.99,100,0,0,856.9061,0,-17.07,3.268,187,17.45,16.97,0.2538992,0,51.33,58.79,33.62,35.4
"2016-06-16 23:30:00",240250,0.284,117.1,13.89,100,0,0,856.7797,0,-28.68,3.382,282,17.41,16.97,0.1515799,0,51.33,58.85,33.62,35.41
"2016-06-16 23:40:00",240251,0.064,202.1,13.96,100,0.01965127,0.5,856.6254,0,17.61,2.93,253,17.44,16.97,0.4320036,0.161,51.38,58.91,33.64,35.43
"2016-06-16 23:50:00",240252,0.077,154.3,13.97,100,0,0,856.3373,0,17.79,2.928,251,17.43,16.98,0.2993727,0,51.38,58.97,33.64,35.44
